QPF
0.00 0.00 0.00 0.00 0.00 0.00 0.00 0.00 0.00 0.00 0.00 0.00 0.00 0.00 0.00 0.00 0.00 0.00 0.00 0.00 0.00 0.00 0.00 0.00 0.00 0.00 0.00 0.00 0.00 0.00 0.00 0.00 0.00 0.00 0.00 0.00 0.00 0.00 0.00 0.00 0.00 0.00 0.00 0.00 0.00
0.00 0.00 0.00 0.00 0.00 0.00 0.00 0.00 0.00 0.00 0.00 0.00 0.00 0.00 0.00 0.00 0.00 0.00 0.00 0.00 0.00 0.00 0.00 0.00 0.00 0.00 0.00 0.00 0.00 0.00 0.00 0.00 0.00 0.00 0.00 0.00 0.00 0.00 0.00 0.00 0.00 0.00 0.00 0.00 0.00
0.00 0.00 0.00 0.00 0.00 0.00 0.00 0.00 0.00 0.00 0.00 0.00 0.00 0.00 0.00 0.00 0.00 0.00 0.00 0.00 0.00 0.00 0.00 0.00 0.00 0.00 0.00 0.00 0.00 0.00 0.00 0.00 0.00 0.00 0.00 0.00 0.00 0.00 0.00 0.00 0.00 0.00 0.00 0.00 0.00
0.00 0.00 0.00 0.00 0.00 0.00 0.00 0.00 0.00 0.00 0.00 0.00 0.00 0.00 0.00 0.00 0.00 0.00 0.00 0.00 0.00 0.00 0.00 0.00 0.00 0.00 0.00 0.00 0.00 0.00 0.00 0.00 0.00 0.00 0.00 0.00 0.00 0.00 0.00 0.00 0.00 0.00 0.00 0.00 0.00
0.00 0.00 0.00 0.00 0.00 0.00 0.00 0.00 0.00 0.00 0.00 0.00 0.00 0.00 0.00 0.00 0.00 0.00 0.00 0.00 0.00 0.00 0.00 0.00 0.00 0.00 0.00 0.00 0.00 0.00 0.00 0.00 0.00 0.00 0.00 0.00 0.00 0.00 0.00 0.00 0.00 0.00 0.00 0.00 0.00
0.00 0.00 0.00 0.00 0.00 0.00 0.00 0.00 0.00 0.00 0.00 0.00 0.00 0.00 0.00 0.00 0.00 0.00 0.00 0.00 0.00 0.00 0.00 0.00 0.00 0.00 0.00 0.00 0.00 0.00 0.00 0.00 0.00 0.00 0.00 0.00 0.00 0.00 0.00 0.00 0.00 0.00 0.00 0.00 0.00
0.00 0.00 0.00 0.00 0.00 0.00 0.00 0.00 0.00 0.00 0.00 0.00 0.00 0.00 0.00 0.00 0.00 0.00 0.00 0.00 0.00 0.00 0.00 0.00 0.00 0.00 0.00 0.00 0.00 0.00 0.00 0.00 0.00 0.00 0.00 0.00 0.00 0.00 0.00 0.00 0.00 0.00 0.00 0.00 0.00
0.00 0.00 0.00 0.00 0.00 0.00 0.00 0.00 0.00 0.00 0.00 0.00 0.00 0.00 0.00 0.00 0.00 0.00 0.00 0.00 0.00 0.00 0.00 0.00 0.00 0.00 0.00 0.00 0.00 0.00 0.00 0.00 0.00 0.00 0.00 0.00 0.00 0.00 0.00 0.00 0.00 0.00 0.02 0.08 0.00
0.00 0.00 0.00 0.00 0.00 0.00 0.00 0.00 0.00 0.00 0.00 0.00 0.00 0.00 0.00 0.00 0.00 0.00 0.00 0.00 0.00 0.00 0.00 0.00 0.00 0.00 0.00 0.00 0.00 0.00 0.00 0.00 0.00 0.00 0.00 0.00 0.00 0.00 0.00 0.00 0.00 0.00 0.02 0.03 0.00
0.00 0.00 0.00 0.00 0.00 0.00 0.00 0.00 0.00 0.00 0.00 0.00 0.00 0.00 0.00 0.00 0.00 0.00 0.00 0.00 0.00 0.00 0.00 0.00 0.00 0.00 0.00 0.00 0.00 0.00 0.00 0.00 0.00 0.00 0.00 0.00 0.00 0.00 0.00 0.00 0.00 0.00 0.00 0.00 0.00
0.00 0.00 0.00 0.00 0.00 0.00 0.00 0.00 0.00 0.00 0.00 0.00 0.00 0.00 0.00 0.00 0.00 0.00 0.00 0.00 0.00 0.00 0.00 0.00 0.00 0.00 0.00 0.00 0.00 0.00 0.00 0.00 0.00 0.00 0.00 0.00 0.00 0.00 0.00 0.00 0.00 0.00 0.00 0.00 0.00
0.00 0.00 0.00 0.00 0.00 0.00 0.00 0.00 0.00 0.00 0.00 0.00 0.00 0.00 0.00 0.00 0.00 0.00 0.00 0.00 0.00 0.00 0.00 0.00 0.00 0.00 0.00 0.00 0.00 0.00 0.00 0.00 0.00 0.00 0.00 0.00 0.00 0.00 0.00 0.00 0.00 0.00 0.00 0.00 0.00
0.00 0.00 0.00 0.00 0.00 0.00 0.00 0.00 0.00 0.00 0.00 0.00 0.00 0.00 0.00 0.00 0.00 0.00 0.00 0.00 0.00 0.00 0.00 0.00 0.00 0.00 0.00 0.00 0.00 0.00 0.00 0.00 0.00 0.00 0.00 0.00 0.00 0.00 0.00 0.00 0.00 0.00 0.00 0.00 0.00
0.00 0.00 0.00 0.00 0.00 0.00 0.00 0.00 0.00 0.00 0.00 0.00 0.00 0.00 0.00 0.00 0.00 0.00 0.00 0.00 0.00 0.00 0.00 0.00 0.00 0.00 0.00 0.00 0.00 0.00 0.00 0.00 0.00 0.00 0.00 0.00 0.00 0.00 0.00 0.00 0.00 0.00 0.00 0.00 0.00
0.00 0.00 0.00 0.00 0.00 0.00 0.00 0.00 0.00 0.00 0.00 0.00 0.00 0.00 0.00 0.00 0.00 0.00 0.00 0.00 0.00 0.00 0.00 0.00 0.00 0.00 0.00 0.00 0.00 0.00 0.00 0.00 0.00 0.00 0.00 0.00 0.00 0.00 0.00 0.00 0.00 0.00 0.00 0.00 0.00
0.00 0.00 0.00 0.00 0.00 0.00 0.00 0.00 0.00 0.00 0.00 0.00 0.00 0.00 0.00 0.00 0.00 0.00 0.00 0.00 0.00 0.00 0.00 0.00 0.00 0.00 0.00 0.00 0.00 0.00 0.00 0.00 0.00 0.00 0.00 0.00 0.00 0.00 0.00 0.00 0.00 0.00 0.00 0.00 0.00
0.00 0.00 0.00 0.00 0.00 0.00 0.00 0.00 0.00 0.00 0.00 0.00 0.00 0.00 0.00 0.00 0.00 0.00 0.00 0.00 0.00 0.00 0.00 0.00 0.00 0.00 0.00 0.00 0.00 0.00 0.00 0.00 0.00 0.00 0.00 0.00 0.00 0.00 0.00 0.00 0.00 0.00 0.00 0.01 0.00
0.00 0.00 0.00 0.00 0.00 0.00 0.00 0.00 0.00 0.00 0.00 0.00 0.00 0.00 0.00 0.00 0.00 0.00 0.00 0.00 0.00 0.00 0.00 0.00 0.00 0.00 0.00 0.00 0.00 0.00 0.00 0.00 0.00 0.00 0.00 0.00 0.00 0.00 0.00 0.00 0.02 0.16 0.28 0.17 0.04
0.00 0.00 0.00 0.00 0.00 0.00 0.00 0.00 0.00 0.00 0.00 0.00 0.00 0.00 0.00 0.00 0.00 0.00 0.00 0.00 0.00 0.00 0.00 0.00 0.00 0.00 0.00 0.00 0.00 0.00 0.00 0.00 0.00 0.00 0.00 0.00 0.00 0.00 0.00 0.01 0.13 0.31 0.22 0.16 0.07
0.00 0.00 0.00 0.00 0.00 0.00 0.00 0.00 0.00 0.00 0.00 0.00 0.00 0.00 0.00 0.00 0.00 0.00 0.00 0.00 0.00 0.00 0.00 0.00 0.00 0.00 0.00 0.00 0.00 0.00 0.00 0.00 0.00 0.00 0.00 0.00 0.00 0.01 0.06 0.11 0.14 0.09 0.09 0.12 0.09
0.00 0.00 0.00 0.00 0.00 0.00 0.00 0.00 0.00 0.00 0.00 0.00 0.00 0.00 0.00 0.00 0.00 0.00 0.00 0.00 0.00 0.00 0.00 0.00 0.00 0.00 0.00 0.00 0.00 0.00 0.00 0.00 0.00 0.00 0.00 0.00 0.00 0.01 0.04 0.06 0.03 0.01 0.02 0.17 0.16
0.00 0.00 0.00 0.00 0.00 0.00 0.00 0.00 0.00 0.00 0.00 0.00 0.00 0.00 0.00 0.00 0.00 0.00 0.00 0.00 0.00 0.00 0.00 0.00 0.00 0.00 0.00 0.00 0.00 0.00 0.00 0.00 0.00 0.00 0.00 0.00 0.00 0.00 0.00 0.00 0.00 0.01 0.28 0.25 0.13
0.00 0.00 0.00 0.00 0.00 0.00 0.00 0.00 0.00 0.00 0.00 0.00 0.00 0.00 0.00 0.00 0.00 0.00 0.00 0.00 0.00 0.00 0.00 0.00 0.00 0.00 0.00 0.00 0.00 0.00 0.00 0.00 0.00 0.00 0.00 0.00 0.00 0.00 0.00 0.00 0.00 0.00 0.03 0.01 0.02
0.00 0.00 0.00 0.00 0.00 0.00 0.00 0.00 0.00 0.00 0.00 0.00 0.00 0.00 0.00 0.00 0.00 0.00 0.00 0.00 0.00 0.00 0.00 0.00 0.00 0.00 0.00 0.00 0.00 0.00 0.00 0.00 0.00 0.00 0.00 0.00 0.00 0.00 0.00 0.00 0.00 0.00 0.00 0.00 0.00
0.00 0.00 0.00 0.00 0.00 0.00 0.00 0.00 0.00 0.00 0.00 0.00 0.00 0.00 0.00 0.00 0.00 0.00 0.00 0.00 0.00 0.00 0.00 0.00 0.00 0.00 0.00 0.00 0.00 0.00 0.00 0.00 0.00 0.00 0.00 0.00 0.00 0.00 0.00 0.01 0.01 0.00 0.00 0.00 0.00
0.00 0.00 0.00 0.00 0.00 0.00 0.00 0.00 0.00 0.00 0.00 0.00 0.00 0.00 0.00 0.00 0.00 0.00 0.00 0.00 0.00 0.00 0.00 0.00 0.00 0.00 0.00 0.00 0.00 0.00 0.00 0.00 0.00 0.00 0.00 0.00 0.00 0.00 0.00 0.00 0.00 0.00 0.00 0.01 0.00
0.00 0.00 0.00 0.00 0.00 0.00 0.00 0.00 0.00 0.00 0.00 0.00 0.00 0.00 0.00 0.00 0.00 0.00 0.00 0.00 0.00 0.00 0.00 0.00 0.00 0.00 0.00 0.00 0.00 0.00 0.00 0.00 0.00 0.00 0.00 0.00 0.00 0.00 0.00 0.00 0.00 0.00 0.00 0.00 0.00
MSLP
1019.73 1019.44 1019.03 1018.59 1017.98 1017.41 1016.84 1016.37 1015.79 1015.23 1014.93 1014.78 1014.45 1014.01 1013.39 1012.51 1011.36 1010.86 1009.61 1007.95 1007.86 1008.39 1008.79 1008.95 1009.44 1009.25 1009.51 1009.29 1008.53 1008.72 1009.93 1010.01 1009.28 1009.30 1007.87 1006.82 1006.87 1005.85 1005.86 1006.83 1007.14 1007.65 1007.88 1008.96 1010.98
1019.82 1019.47 1019.07 1018.59 1017.99 1017.45 1016.97 1016.43 1015.88 1015.43 1015.04 1014.75 1014.26 1013.82 1013.31 1012.73 1011.88 1010.01 1007.35 1007.36 1007.65 1008.13 1008.56 1008.61 1008.51 1008.59 1008.77 1008.25 1007.87 1008.16 1008.55 1008.12 1006.90 1006.99 1006.61 1006.03 1006.36 1006.41 1006.40 1006.84 1007.85 1008.29 1009.08 1009.89 1010.85
1020.08 1019.61 1019.12 1018.59 1018.13 1017.62 1017.07 1016.52 1015.96 1015.37 1014.87 1014.48 1014.17 1013.59 1013.30 1012.98 1011.63 1008.20 1006.39 1007.04 1007.68 1008.04 1008.14 1008.25 1008.01 1008.13 1008.13 1007.54 1007.14 1006.95 1006.75 1005.87 1005.80 1005.29 1005.27 1005.45 1006.04 1006.65 1006.57 1006.73 1007.11 1008.68 1009.68 1010.49 1010.97
1020.08 1019.65 1019.07 1018.54 1017.99 1017.40 1016.76 1016.32 1015.79 1015.29 1014.73 1014.24 1014.01 1013.65 1013.21 1012.87 1010.51 1006.94 1006.79 1007.34 1007.72 1007.88 1008.05 1007.85 1007.71 1007.86 1007.90 1007.63 1006.85 1006.71 1005.91 1005.31 1004.01 1004.51 1004.79 1005.18 1006.20 1006.43 1005.67 1006.12 1006.82 1007.61 1008.89 1010.27 1011.14
1019.99 1019.47 1018.99 1018.39 1017.81 1017.12 1016.60 1016.03 1015.39 1014.87 1014.43 1014.17 1013.84 1013.55 1013.15 1011.86 1008.90 1006.43 1006.87 1007.41 1007.78 1007.93 1007.87 1007.82 1007.60 1007.49 1007.44 1006.95 1006.69 1006.46 1005.69 1005.03 1003.58 1004.27 1004.47 1005.19 1005.53 1005.09 1005.75 1006.38 1006.89 1008.04 1008.57 1010.17 1011.57
1020.02 1019.47 1018.94 1018.30 1017.56 1016.94 1016.26 1015.61 1014.99 1014.44 1014.15 1013.87 1013.68 1013.51 1012.91 1010.57 1006.63 1006.40 1006.85 1007.49 1007.60 1007.81 1007.56 1007.58 1007.07 1006.76 1007.01 1006.63 1006.69 1006.03 1005.39 1004.43 1004.33 1004.27 1004.78 1005.81 1005.71 1005.71 1006.11 1006.64 1007.26 1008.09 1008.58 1010.49 1011.21
1019.99 1019.39 1018.87 1018.33 1017.41 1016.71 1015.89 1015.13 1014.50 1013.85 1013.53 1013.45 1013.29 1013.03 1011.94 1008.55 1006.41 1006.52 1006.75 1006.65 1006.64 1006.95 1007.20 1006.85 1006.57 1006.89 1006.53 1006.51 1006.17 1005.99 1005.39 1004.43 1004.05 1004.51 1005.10 1005.40 1006.21 1005.88 1006.17 1006.82 1007.68 1008.57 1009.07 1011.13 1012.25
1019.96 1019.33 1018.77 1018.11 1017.24 1016.58 1015.66 1014.65 1013.68 1013.08 1012.87 1012.84 1012.91 1012.51 1010.53 1006.78 1006.57 1006.49 1006.62 1006.38 1006.00 1006.35 1006.49 1005.82 1006.03 1006.28 1006.44 1006.63 1006.65 1006.72 1006.29 1005.55 1004.13 1003.57 1004.79 1004.77 1005.85 1005.86 1005.40 1007.15 1007.86 1008.57 1009.11 1009.37 1011.76
1019.99 1019.22 1018.54 1017.93 1017.24 1016.35 1015.45 1014.03 1012.70 1012.31 1012.42 1012.57 1012.61 1011.77 1009.37 1006.52 1006.11 1005.53 1005.98 1006.17 1005.66 1005.71 1005.57 1005.41 1005.75 1006.55 1006.93 1007.78 1008.26 1007.97 1007.56 1006.51 1004.58 1003.59 1003.73 1004.63 1005.11 1004.69 1004.75 1007.27 1007.77 1008.49 1009.05 1010.06 1012.49
1019.95 1019.18 1018.46 1017.83 1017.13 1016.32 1015.15 1013.01 1011.88 1012.00 1012.24 1012.25 1011.53 1011.25 1008.48 1006.66 1005.71 1005.11 1005.05 1005.39 1005.76 1005.85 1005.86 1006.05 1006.73 1007.37 1008.26 1008.81 1009.00 1008.38 1007.93 1006.63 1005.23 1003.83 1003.53 1004.37 1005.05 1004.69 1004.89 1006.22 1007.75 1008.69 1009.43 1010.63 1012.52
1019.89 1019.15 1018.37 1017.55 1016.93 1016.38 1015.34 1013.11 1012.24 1012.08 1011.56 1010.87 1010.41 1009.39 1007.45 1006.21 1005.49 1004.96 1004.89 1005.30 1005.53 1005.95 1006.67 1006.71 1007.63 1008.07 1007.87 1008.17 1007.75 1008.06 1007.95 1007.05 1005.49 1004.37 1004.51 1004.50 1005.03 1004.79 1005.13 1006.29 1007.36 1008.24 1009.95 1011.13 1012.23
1019.80 1018.95 1018.19 1017.31 1016.47 1016.03 1016.22 1014.55 1012.20 1011.80 1011.03 1009.71 1008.78 1008.26 1006.95 1006.62 1006.52 1005.15 1004.64 1005.53 1005.92 1006.50 1006.86 1007.64 1007.64 1006.84 1007.17 1007.17 1007.23 1007.42 1007.55 1006.64 1005.75 1004.78 1005.15 1004.61 1005.00 1005.73 1005.81 1006.15 1006.39 1007.97 1009.67 1010.97 1012.20
1019.70 1018.94 1018.21 1017.09 1015.94 1015.53 1015.11 1013.21 1011.29 1011.35 1011.19 1008.72 1007.42 1006.79 1005.69 1005.94 1005.54 1004.89 1004.95 1005.41 1006.10 1006.75 1007.14 1007.71 1006.46 1006.26 1006.55 1006.25 1006.39 1006.44 1006.40 1006.17 1005.87 1005.18 1005.15 1005.78 1006.50 1006.95 1006.83 1006.17 1006.78 1007.81 1008.62 1010.05 1011.05
1019.56 1018.98 1018.40 1017.01 1015.73 1015.69 1014.00 1011.99 1011.49 1011.16 1011.38 1008.42 1006.72 1004.76 1004.58 1004.82 1004.84 1004.06 1004.29 1005.27 1006.07 1006.49 1006.78 1007.05 1005.78 1005.98 1005.73 1005.56 1005.13 1005.43 1005.43 1005.67 1006.16 1006.76 1006.67 1006.15 1008.35 1008.73 1008.77 1008.18 1008.16 1008.35 1008.91 1009.43 1011.06
1019.46 1018.87 1018.34 1018.01 1017.37 1015.92 1013.11 1012.04 1011.24 1011.15 1010.88 1006.66 1004.93 1002.96 1003.39 1004.34 1003.91 1003.33 1003.30 1004.61 1005.55 1006.03 1006.64 1006.11 1005.71 1005.30 1005.04 1004.55 1004.15 1004.59 1004.49 1005.40 1005.97 1006.79 1007.35 1007.67 1008.83 1009.29 1009.73 1009.66 1009.00 1008.85 1009.11 1009.71 1010.77
1019.14 1018.71 1018.38 1017.88 1017.54 1014.57 1013.37 1012.31 1011.72 1012.31 1009.91 1006.55 1004.19 1003.67 1004.11 1004.21 1003.92 1003.56 1003.85 1004.34 1004.80 1005.75 1005.97 1005.91 1004.90 1004.78 1004.13 1003.71 1003.81 1004.19 1005.06 1006.31 1007.42 1008.25 1008.99 1008.60 1009.26 1009.67 1009.54 1008.64 1008.76 1008.71 1008.77 1009.61 1010.47
1018.61 1018.21 1018.52 1017.89 1015.55 1013.81 1013.53 1013.26 1013.39 1012.22 1008.92 1006.66 1005.08 1004.39 1004.06 1004.32 1004.29 1004.24 1004.42 1004.91 1005.51 1006.23 1006.67 1006.02 1005.04 1004.38 1003.87 1003.77 1003.77 1004.63 1006.72 1008.37 1009.51 1010.18 1009.81 1008.85 1009.55 1008.53 1007.95 1008.47 1008.23 1008.22 1008.79 1009.93 1011.04
1017.94 1017.07 1016.33 1015.64 1014.54 1014.62 1014.33 1014.38 1013.45 1011.03 1008.85 1006.89 1005.98 1005.25 1005.33 1004.89 1004.49 1004.44 1004.94 1005.46 1005.53 1005.98 1006.85 1006.69 1005.73 1004.27 1003.61 1003.77 1004.33 1005.17 1006.94 1008.74 1010.05 1011.10 1010.27 1009.27 1009.55 1008.80 1008.44 1009.17 1009.74 1010.33 1011.43 1012.08 1011.95
1017.39 1016.07 1015.71 1013.33 1013.83 1014.93 1015.12 1014.71 1012.83 1010.80 1008.75 1007.76 1006.73 1006.03 1005.63 1004.79 1004.77 1004.83 1005.04 1005.34 1005.19 1005.51 1006.40 1006.53 1005.59 1004.27 1003.68 1003.57 1004.25 1004.79 1006.48 1007.54 1009.25 1010.66 1011.13 1010.25 1010.29 1009.80 1009.98 1009.90 1010.54 1011.20 1012.50 1012.47 1012.04
1017.73 1016.43 1014.11 1011.81 1013.03 1014.28 1014.92 1014.14 1012.15 1010.00 1008.77 1008.01 1007.60 1006.70 1006.62 1006.19 1005.79 1005.59 1005.26 1004.53 1004.58 1004.59 1004.68 1005.73 1005.90 1004.27 1003.41 1003.23 1003.26 1003.69 1005.17 1007.45 1009.45 1010.76 1011.52 1010.97 1010.87 1010.90 1011.85 1012.25 1012.35 1012.42 1012.81 1011.34 1011.32
1017.57 1015.90 1011.62 1011.47 1012.62 1014.08 1014.62 1013.50 1011.49 1009.45 1008.88 1008.19 1007.55 1007.36 1006.96 1006.81 1006.67 1006.04 1005.53 1004.65 1004.47 1004.06 1004.33 1005.29 1005.99 1004.43 1004.19 1003.80 1003.79 1004.20 1005.18 1006.92 1008.60 1010.00 1011.18 1012.03 1012.13 1011.66 1011.53 1011.16 1011.40 1012.06 1011.60 1010.92 1010.68
1017.73 1015.38 1011.26 1011.10 1013.13 1013.82 1013.83 1012.20 1010.85 1009.36 1008.77 1008.43 1007.34 1006.82 1006.56 1006.71 1006.72 1006.17 1005.81 1004.99 1004.55 1004.24 1004.57 1004.65 1005.69 1005.89 1004.79 1003.98 1003.63 1004.10 1004.94 1006.39 1008.55 1009.59 1010.74 1011.52 1012.76 1012.14 1012.03 1011.75 1011.25 1011.18 1010.11 1009.00 1008.83
1018.47 1015.22 1011.50 1011.39 1012.77 1013.41 1012.57 1011.51 1010.42 1009.33 1008.55 1008.04 1007.25 1006.67 1006.52 1006.78 1007.02 1006.26 1005.55 1004.92 1004.99 1004.58 1004.66 1005.13 1005.97 1006.35 1005.45 1005.07 1003.84 1004.15 1004.91 1005.70 1007.09 1008.68 1010.21 1011.85 1013.35 1012.69 1012.68 1012.49 1011.54 1010.50 1009.71 1009.41 1009.25
1018.92 1016.28 1013.34 1012.55 1012.70 1012.87 1012.56 1011.28 1010.02 1008.32 1007.68 1007.53 1007.15 1006.69 1006.87 1007.11 1007.06 1006.85 1006.27 1005.41 1005.39 1005.51 1004.92 1005.14 1006.57 1006.42 1006.19 1005.77 1005.07 1004.81 1004.63 1005.37 1005.99 1007.98 1009.57 1010.77 1012.63 1013.18 1012.95 1012.45 1011.58 1010.61 1009.53 1009.36 1009.48
1018.63 1016.47 1014.15 1013.59 1013.14 1012.66 1012.26 1011.12 1009.85 1008.83 1007.18 1006.78 1006.87 1006.97 1007.35 1007.78 1007.70 1007.36 1007.07 1006.53 1006.00 1005.95 1005.91 1006.35 1007.11 1006.73 1006.17 1005.43 1004.96 1005.01 1004.85 1004.97 1005.63 1006.64 1008.17 1009.53 1010.48 1011.19 1011.35 1010.79 1010.30 1009.76 1010.44 1009.98 1009.79
1018.22 1016.37 1014.76 1013.89 1012.92 1012.09 1011.77 1010.84 1009.62 1008.54 1008.01 1007.42 1007.06 1006.89 1007.06 1007.61 1008.03 1008.09 1008.03 1007.88 1007.22 1006.99 1007.25 1007.41 1007.77 1007.48 1006.69 1005.71 1005.27 1004.98 1004.81 1004.79 1004.99 1006.17 1007.20 1008.09 1009.27 1009.17 1009.86 1011.01 1011.25 1010.94 1010.29 1009.72 1009.54
1017.27 1015.91 1015.47 1014.07 1013.25 1012.37 1011.57 1010.59 1009.10 1008.21 1007.81 1007.65 1007.45 1007.42 1007.55 1007.65 1007.50 1007.56 1007.76 1007.52 1007.55 1007.93 1008.13 1008.31 1008.41 1008.59 1007.98 1006.80 1006.07 1005.67 1004.81 1004.96 1005.37 1005.67 1006.37 1007.53 1007.28 1008.95 1010.21 1009.97 1009.57 1009.85 1009.35 1008.64 1008.75
Thickness
5762 5766 5771 5776 5783 5790 5796 5801 5807 5812 5814 5816 5819 5823 5829 5838 5847 5852 5851 5872 5875 5874 5871 5869 5862 5860 5857 5850 5862 5853 5799 5788 5804 5805 5825 5849 5835 5867 5872 5852 5852 5849 5843 5836 5823
5758 5764 5769 5774 5780 5787 5792 5798 5804 5808 5812 5814 5819 5824 5830 5836 5842 5847 5879 5880 5879 5876 5867 5858 5855 5858 5845 5853 5857 5833 5802 5814 5849 5846 5841 5857 5849 5850 5851 5848 5837 5835 5840 5836 5828
5751 5758 5765 5771 5776 5782 5788 5794 5800 5806 5811 5815 5818 5824 5828 5833 5837 5855 5887 5882 5878 5876 5872 5866 5865 5857 5845 5858 5856 5848 5827 5860 5861 5870 5871 5860 5854 5856 5847 5841 5849 5830 5828 5830 5824
5746 5753 5761 5768 5774 5780 5788 5792 5798 5804 5809 5814 5816 5821 5827 5831 5811 5874 5883 5878 5876 5875 5869 5862 5857 5845 5837 5834 5858 5837 5855 5864 5878 5876 5873 5861 5856 5849 5861 5854 5861 5856 5846 5837 5820
5741 5749 5757 5765 5772 5779 5785 5792 5797 5804 5809 5812 5815 5819 5824 5825 5835 5882 5880 5875 5873 5869 5859 5853 5846 5845 5831 5843 5847 5840 5851 5863 5880 5875 5873 5871 5857 5865 5859 5864 5865 5856 5854 5836 5816
5735 5744 5752 5760 5770 5776 5784 5791 5797 5804 5808 5811 5813 5816 5820 5809 5875 5880 5877 5871 5868 5862 5859 5857 5853 5859 5843 5845 5840 5851 5856 5865 5866 5869 5869 5852 5856 5861 5859 5865 5856 5854 5852 5833 5823
5729 5739 5747 5754 5766 5774 5783 5791 5797 5804 5809 5810 5813 5817 5814 5827 5874 5876 5875 5873 5875 5867 5854 5865 5868 5851 5857 5843 5860 5853 5841 5857 5868 5868 5857 5858 5837 5845 5862 5858 5852 5849 5847 5827 5816
5723 5733 5742 5750 5762 5770 5780 5790 5800 5805 5810 5811 5812 5815 5806 5867 5870 5870 5871 5869 5879 5873 5866 5876 5875 5862 5857 5858 5843 5835 5834 5819 5859 5873 5862 5859 5818 5850 5871 5851 5843 5846 5844 5841 5818
5717 5727 5737 5746 5755 5766 5776 5790 5802 5807 5808 5808 5809 5811 5806 5865 5856 5874 5871 5858 5870 5873 5874 5878 5868 5845 5844 5818 5799 5809 5797 5813 5842 5870 5866 5856 5837 5866 5877 5849 5841 5841 5840 5833 5810
5711 5722 5732 5740 5750 5760 5773 5793 5803 5804 5804 5805 5812 5798 5826 5832 5856 5866 5875 5869 5856 5856 5851 5848 5829 5813 5805 5792 5770 5792 5801 5814 5820 5851 5866 5849 5840 5863 5870 5859 5839 5838 5833 5823 5803
5704 5714 5725 5736 5745 5754 5766 5784 5785 5785 5797 5793 5800 5804 5826 5848 5863 5857 5866 5856 5853 5842 5813 5826 5803 5788 5804 5811 5821 5814 5810 5810 5836 5862 5854 5845 5842 5857 5862 5856 5845 5841 5826 5820 5806
5697 5708 5719 5731 5742 5750 5751 5762 5776 5781 5768 5802 5811 5815 5833 5839 5818 5842 5864 5831 5826 5804 5817 5802 5788 5821 5825 5824 5821 5816 5805 5810 5834 5856 5848 5845 5844 5845 5852 5853 5859 5844 5830 5822 5810
5690 5701 5711 5725 5739 5747 5750 5763 5785 5786 5758 5791 5812 5815 5828 5832 5821 5828 5843 5829 5815 5802 5803 5786 5812 5832 5825 5820 5817 5818 5805 5812 5821 5844 5850 5837 5821 5828 5841 5856 5855 5853 5847 5833 5821
5682 5692 5702 5719 5734 5735 5747 5773 5781 5786 5725 5770 5796 5821 5834 5831 5814 5850 5851 5831 5813 5799 5803 5799 5827 5820 5818 5815 5822 5809 5831 5834 5827 5811 5783 5835 5772 5801 5806 5820 5833 5839 5839 5836 5822
5674 5684 5694 5702 5709 5724 5755 5767 5777 5771 5694 5794 5806 5852 5839 5815 5830 5836 5859 5834 5805 5806 5804 5798 5813 5811 5810 5821 5840 5818 5848 5837 5835 5818 5809 5810 5776 5793 5793 5801 5821 5830 5837 5834 5825
5668 5677 5685 5694 5701 5730 5746 5757 5760 5709 5696 5773 5813 5808 5807 5814 5821 5833 5831 5839 5832 5808 5811 5809 5835 5827 5826 5840 5843 5846 5835 5814 5801 5788 5764 5795 5786 5779 5789 5809 5817 5833 5838 5832 5822
5664 5673 5677 5685 5705 5728 5736 5735 5694 5683 5759 5771 5788 5801 5797 5796 5803 5809 5806 5799 5783 5775 5772 5797 5810 5826 5840 5825 5834 5827 5786 5743 5752 5743 5751 5799 5780 5794 5818 5819 5832 5837 5834 5826 5816
5661 5675 5687 5695 5709 5713 5717 5700 5680 5719 5739 5779 5780 5782 5775 5789 5794 5800 5792 5779 5797 5791 5767 5762 5759 5814 5838 5824 5810 5811 5786 5743 5741 5733 5760 5791 5778 5794 5818 5817 5818 5809 5780 5782 5793
5659 5675 5682 5705 5708 5703 5693 5668 5684 5714 5754 5756 5763 5766 5769 5788 5792 5790 5781 5781 5796 5797 5767 5751 5767 5823 5829 5835 5824 5808 5786 5802 5765 5765 5749 5767 5782 5799 5803 5804 5799 5794 5780 5786 5795
5647 5662 5683 5708 5705 5697 5676 5671 5695 5737 5749 5752 5737 5758 5746 5759 5765 5772 5775 5799 5801 5810 5812 5790 5762 5807 5828 5837 5835 5821 5823 5783 5755 5749 5738 5755 5773 5761 5765 5771 5781 5778 5775 5790 5797
5643 5659 5696 5704 5699 5678 5661 5672 5708 5739 5744 5740 5737 5743 5750 5751 5757 5761 5772 5797 5805 5811 5808 5795 5777 5800 5816 5806 5799 5805 5796 5789 5777 5757 5737 5730 5743 5777 5776 5789 5784 5784 5793 5799 5801
5635 5649 5695 5701 5666 5663 5666 5691 5713 5724 5737 5733 5744 5750 5755 5753 5752 5762 5766 5782 5801 5802 5789 5800 5776 5760 5788 5818 5829 5814 5800 5786 5754 5760 5752 5747 5733 5778 5780 5786 5794 5796 5809 5814 5819
5624 5648 5689 5691 5654 5658 5677 5693 5706 5712 5721 5727 5731 5748 5758 5751 5742 5761 5774 5794 5796 5797 5795 5797 5759 5743 5766 5784 5810 5805 5806 5798 5778 5761 5752 5738 5725 5773 5776 5777 5791 5799 5809 5814 5815
5616 5636 5661 5669 5665 5670 5673 5682 5692 5724 5726 5728 5731 5742 5738 5736 5748 5749 5758 5785 5790 5790 5794 5791 5756 5755 5739 5761 5787 5787 5800 5796 5784 5755 5755 5749 5734 5750 5762 5772 5781 5791 5806 5808 5809
5612 5630 5654 5647 5658 5664 5670 5678 5685 5694 5726 5730 5724 5726 5727 5723 5724 5737 5751 5760 5776 5779 5782 5773 5756 5772 5774 5785 5792 5790 5791 5796 5790 5780 5766 5755 5751 5764 5773 5781 5788 5795 5790 5795 5799
5617 5631 5645 5647 5660 5666 5663 5673 5686 5700 5707 5705 5712 5723 5727 5724 5724 5721 5736 5743 5751 5763 5760 5760 5746 5761 5767 5781 5783 5781 5788 5796 5797 5788 5785 5775 5762 5782 5783 5779 5775 5779 5786 5792 5796
5622 5635 5635 5645 5652 5659 5663 5674 5693 5706 5711 5715 5712 5711 5711 5719 5733 5738 5744 5748 5750 5751 5744 5745 5741 5733 5734 5762 5763 5748 5785 5788 5788 5792 5789 5764 5785 5776 5763 5774 5782 5783 5793 5802 5802